TimeAKDT,TemperatureF,Dew PointF,Humidity,Sea Level PressureIn,VisibilityMPH,Wind Direction,Wind SpeedMPH,Gust SpeedMPH,PrecipitationIn,Events,Conditions,WindDirDegrees,DateUTC
12:53 AM,66.0,37.0,34,30.21,10.0,SW,8.1,-,N/A,,Clear,220,2013-06-16 08:53:00
1:53 AM,64.0,37.9,38,30.22,10.0,SW,12.7,-,N/A,,Clear,220,2013-06-16 09:53:00
2:53 AM,62.1,37.9,41,30.23,10.0,SW,10.4,-,N/A,,Clear,230,2013-06-16 10:53:00
3:53 AM,61.0,37.9,42,30.24,10.0,SW,10.4,-,N/A,,Clear,220,2013-06-16 11:53:00
4:53 AM,61.0,37.0,41,30.24,10.0,SW,9.2,-,N/A,,Clear,230,2013-06-16 12:53:00
5:53 AM,62.1,37.0,39,30.25,10.0,WSW,8.1,-,N/A,,Mostly Cloudy,250,2013-06-16 13:53:00
6:53 AM,62.1,39.0,43,30.26,10.0,SW,8.1,-,N/A,,Mostly Cloudy,220,2013-06-16 14:53:00
7:53 AM,64.0,39.9,41,30.26,10.0,SW,4.6,-,N/A,,Mostly Cloudy,230,2013-06-16 15:53:00
8:53 AM,66.9,42.1,40,30.26,10.0,WSW,5.8,-,N/A,,Mostly Cloudy,250,2013-06-16 16:53:00
9:53 AM,71.1,43.0,36,30.25,10.0,WNW,5.8,-,N/A,,Mostly Cloudy,300,2013-06-16 17:53:00
10:53 AM,75.0,45.0,34,30.25,10.0,NNW,4.6,-,N/A,,Mostly Cloudy,330,2013-06-16 18:53:00
11:53 AM,77.0,43.0,30,30.24,10.0,Variable,4.6,-,N/A,,Mostly Cloudy,0,2013-06-16 19:53:00
12:53 PM,80.1,39.9,24,30.23,10.0,NNW,12.7,16.1,N/A,,Scattered Clouds,330,2013-06-16 20:53:00
1:53 PM,81.0,37.0,21,30.22,10.0,NNW,16.1,-,N/A,,Mostly Cloudy,330,2013-06-16 21:53:00
2:53 PM,82.0,39.0,22,30.22,10.0,NW,15.0,21.9,N/A,,Scattered Clouds,310,2013-06-16 22:53:00
3:53 PM,82.9,39.0,21,30.20,10.0,NW,9.2,17.3,N/A,,Scattered Clouds,320,2013-06-16 23:53:00
4:53 PM,82.9,45.0,26,30.19,10.0,NNW,10.4,-,N/A,,Scattered Clouds,340,2013-06-17 00:53:00
5:53 PM,84.0,46.0,26,30.17,10.0,NW,11.5,18.4,N/A,,Scattered Clouds,310,2013-06-17 01:53:00
6:53 PM,82.9,46.9,28,30.17,10.0,WNW,10.4,-,N/A,,Scattered Clouds,300,2013-06-17 02:53:00
7:53 PM,82.9,45.0,26,30.16,10.0,NW,10.4,-,N/A,,Scattered Clouds,320,2013-06-17 03:53:00
8:53 PM,82.0,46.0,28,30.15,10.0,NW,12.7,-,N/A,,Scattered Clouds,320,2013-06-17 04:53:00
9:53 PM,80.1,46.9,31,30.15,10.0,NW,8.1,-,N/A,,Clear,310,2013-06-17 05:53:00
10:53 PM,77.0,48.0,36,30.16,10.0,West,5.8,-,N/A,,Clear,270,2013-06-17 06:53:00
11:53 PM,73.0,50.0,44,30.17,10.0,West,8.1,-,N/A,,Partly Cloudy,260,2013-06-17 07:53:00